User: anonymous   Login
Location: Unspecified
(0.0000°N, 0.0000°E)
Time: 10:04:12
(UTC+00:00)
Language:

TBA - TO BE ASSIGNED - Orbit

View from above orbital plane
View from above orbital plane
View from above satellite
View from above satellite

Ground track
Ground track

The orbit is defined by the following mean orbital elements,

1 68034U          26145.40819321 +.00000000 +00000-0 +66534-3 0 00007
2 68034  97.2837  94.4690 0002252 106.2396 253.9094 15.33445778    08
Epoch (UTC): 25 May 2026 09:47:47
Eccentricity: 0.0002252
inclination: 97.2837°
perigee height: 464 km
apogee height: 467 km
right ascension of ascending node: 94.4690°
argument of perigee: 106.2396°
revolutions per day: 15.33445778
mean anomaly at epoch: 253.9094°

The dashed part of the orbit path shows where the satellite is in the earth's shadow,  

DLR